Location: Goudex
(43.3760°N, 0.9543°E)
Time: 01:12:40
(UTC+00:00)

Cosmos 2082 Rocket - Pass Details

Date: 20 November 2019
Orbit: 833 x 854 km, 71.0° (Epoch: 06 December)

Event Time Altitude Azimuth Distance (km) Brightness Sun altitude
Exits shadow 03:44:40 17° 15° (NNE) 2,048 4.3 -34.4°
Drops below altitude 10° 03:45:53 10° 18° (NNE) 2,488 4.8 -34.2°
Sets 03:48:24 0° 22° (NNE) 3,426 5.7 -33.7°
